Chippewa County International Airport
KCIU : now visible

Airfield :











YOU CAN JOIN US ON...

 
LOGIN :

Register | Disclaimer

   EN    FR    IT 

 









Legend :    VFR   Marginal VFR   IFR   Intensive IFR   Very Intensive IFR
Visi :
Ceiling :
>= 8 km
>= 3000ft
5 to 8 km
1000 to 3000 ft
1500m to 5 km
500 to 1000 ft
800 to 1500m
200 to 500 ft
< 800m
< 200 ft
Symbols :   Thunderstorms  Fog  Heavy snow  Heavy precipitations  Wind > 20 kt






- Airport Elevation : 800 ft
- IATA code : CIU


KCIU - Chippewa County International

CURRENT METAR :
  • 311856Z AUTO 32006KT 10SM BKN011 OVC018 19/17 A2989 RMK AO2 SLP121 P0012 T01890167

EXPIRED METARs :
  • 311813Z AUTO 30004KT 9SM SCT005 OVC009 17/16 A2989 RMK AO2 P0003
  • 311756Z AUTO 27003KT 10SM OVC003 17/16 A2990 RMK AO2 SLP122 P0016 6//// T01670156 10167 20128 50003
  • 311713Z AUTO 00000KT 9SM BKN003 OVC018 16/16 A2990 RMK AO2 P0005
  • 311656Z AUTO 00000KT 10SM SCT003 OVC020 15/15 A2990 RMK AO2 RAE46 SLP124 P0016 T01500150

TAF N/A
KZMP FIR / North America



MET'MAP, your aeronautical weather chart ! - Copyright ORBIFLY December 2007 - Disclaimer

ORBIFLY MET'MAP TEAM :

Programming & Development : Alexandra Zaïnal
Concept & original design : Baudouin d'Aumeries
Assistance for programming : Marc-Olivier Méhu
Technical & hardware support : Manuel Goepfert

Contact : metmap@orbifly.com




SOURCES & CREDITS :

   NOAA       Earth
Advisory